Location: Newark
(29.9790°N, 31.1340°E)
Time: 02:37:32
(UTC+00:00)

Transit 2A Rocket - Pass Details

Date: 18 January 2020
Orbit: 591 x 912 km, 66.7° (Epoch: 25 February)

Event Time Altitude Azimuth Distance (km) Brightness Sun altitude
Rises 03:55:45 0° 192° (SSW) 2,920 8.1 -12.2°
Reaches altitude 10° 03:58:06 10° 187° (S) 1,980 7.3 -11.7°
Maximum altitude 04:02:23 51° 112° (ESE) 759 5.5 -10.8°
Drops below altitude 10° 04:06:32 10° 36° (NE) 1,922 7.3 -10.0°
Sets 04:08:47 0° 32° (NNE) 2,825 8.1 -9.5°
